User: anonymous   Login
Location: Mount Wilson Observatory
(34.2257°N, 118.0571°W)
Time: 11:21:32
(UTC-07:00)
Language:

ATLAS 3B CENTAUR R/B - Orbit

View from above orbital plane
View from above orbital plane
View from above satellite
View from above satellite

Ground track
Ground track

The orbit data is extracted from the following two-line orbital elements,

1 28118U 03057B   17172.92040518 +.00045738 +00000-0 +65319-3 0  9996
2 28118 028.1358 118.2301 3062902 279.9221 047.3701 09.35348639121702
Epoch (UTC): 21 June 2017 22:05:23
Eccentricity: 0.3062902
inclination: 28.1358°
perigee height: 222 km
apogee height: 6051 km
right ascension of ascending node: 118.2301°
argument of perigee: 279.9221°
revolutions per day: 9.35348639
mean anomaly at epoch: 47.3701°
orbit number at epoch: 12170

The dashed part of the orbit path shows where the satellite is in the earth's shadow,  

DLR